Location: Kirtland Hills
(41.6239°N, 81.3071°W)
Time: 09:40:34
(UTC+00:00)

Radarsat Rocket - Pass Details

Date: 29 October 2020
Orbit: 933 x 1492 km, 100.6° (Epoch: 26 November)

Event Time Altitude Azimuth Distance (km) Brightness Sun altitude
Rises 22:47:22 0° 169° (SSE) 3,755 7.1 -5.2°
Reaches altitude 10° 22:49:55 10° 171° (S) 2,753 6.4 -5.7°
Maximum altitude 22:55:57 70° 255° (WSW) 1,005 4.4 -6.8°
Drops below altitude 10° 23:01:46 10° 339° (NNW) 2,650 6.4 -7.8°
Sets 23:04:11 0° 342° (NNW) 3,606 7.1 -8.3°
